CZ-6A DEB, 56612

Orbit data source: Space-Track

CZ-6A DEB, 56612 is space debris in SSO originally from a launch on Fri, 11 Nov 2022 UTC launched from the Taiyaun Space Center, China (TSC). Debris objects in space refer to the collection of defunct objects orbiting the Earth. Examples of debris include non-operational satellites, rocket bodies, and fragments generated from explosions, collisions, or faulty payload assembly.

Loading next visibility...
Identifier
56612, 2022-151AEL
Orbit
SSO
Country
Flag of CNCN / PRC
Related business
Manufacturer
SAST
Mission
Spacecraft
Bus & Motor
Unknown
Mass
Unknown
Launch date (UTC)
2022-11-11 (3 years ago)
Launch vehicle
Unknown
Launch site
Taiyaun Space Center, China (TSC)
Object type
Payload
Rocket body
Debris
Shape & HBR
Unknown shape, 0.1 m
Radar Cross Section
Small (<0.1 m²)

Expand to show TLE details & history
Last TLE update: 10 hours ago

TLE from 10 hours ago
0 CZ-6A DEB
1 56612U 22151AEL 26130.45910108  .00000685  00000-0  37526-3 0  9996
2 56612  98.8229 136.6740 0036672  52.4338 308.0156 14.14865396156929
Epoch: 2026-05-10T11:01Z
TLE epoch observation values (Epoch: 2026-05-10T11:01:06.333Z)
Latitude
-0.00011°
Longitude
103.13575°
Altitude
829.423 km
Speed
7.447 km/s
True Right ascension
09h 06m 41s
True Declination
0° 00' 00"
Sunlit
Object was in daylight at epoch
Visualization orbit readout
Latitude
Unknown
Longitude
Unknown
Altitude
Unknown
Speed
Unknown
Apparent Right ascension
Unknown
Apparent Declination
Unknown
Sunlit
N/A
Visualization observer readout
Local Sidereal Time
05:29:17
Azimuth
Unknown
Elevation
Unknown
Doppler factor
Unknown
Orbital elements
Apogee altitude
866.411 km
Perigee altitude
813.471 km
Semi-major axis
7,218.078 km
Eccentricity
0.00367
Inclination
98.8229°
RAAN
136.674°
Arg. of periapsis
52.4338°
True anomaly
307.68359°
Mean anomaly
308.0156°
Eccentric anomaly
307.84969°
Mean motion
3.53925 °/min
Orbital period
101.72 mins
BSTAR
0.00037526
Loading maneuver chart data...
Computing Atmospheric mass density...
Loading historical data...
Loading historical data...
Loading historical data...
Loading historical data...
Loading historical data...
Loading historical data...
Loading historical data...

Documentation

Showing up to 5 results
|